Weather History for Juneau, WI

Change the Weather History Date:

Thursday, August 15, 2013

  Actual Average Record
Temperature  
Mean Temperature 64 °F -  
Max Temperature 76 °F 74 °F 90 °F (1978)
Min Temperature 52 °F 57 °F 41 °F (1979)
Degree Days  
Heating Degree Days 2    
Growing Degree Days 14 (Base 50)    
Moisture  
Dew Point 48 °F    
Average Humidity 59    
Maximum Humidity 89    
Minimum Humidity 28    
Precipitation  
Precipitation 0.00 in - - ()
Sea Level Pressure  
Sea Level Pressure 30.14 in    
Wind  
Wind Speed 3 mph (SW)    
Max Wind Speed 10 mph    
Max Gust Speed -    
Visibility 10 miles    
Events      
Averages and records for this station are not official NWS values.
T = Trace of Precipitation, MM = Missing Value Source: NWS Daily Summary

Daily Weather History Graph

Daily Weather History Graph

Search for Another Location

Airport:

Trip Planner

Search our weather history database for the weather conditions in past years. The results will help you decide how hot, cold, wet, or windy it might be!

Date:

Astronomy

Aug. 15, 2013 Rise Set
Actual Time 6:00 AM CDT 7:57 PM CDT
Civil Twilight 5:29 AM CDT 8:28 PM CDT
Nautical Twilight 4:51 AM CDT 9:06 PM CDT
Astronomical Twilight 4:09 AM CDT 9:47 PM CDT
Moon 3:17 PM CDT (8/15) 12:06 AM CDT (8/15)
Length of Visible Light 14h 59m
Length of Day
13h 57m
Waxing Gibbous, 64% of the Moon is Illuminated
Aug 15
Waxing Gibbous
Aug 20
Full
Aug 28
Last Quarter
Sep 5
New
Sep 12
First Quarter

Hourly Weather History & Observations

Time (CDT) Temp. Dew Point Humidity Pressure Visibility Wind Dir Wind Speed Gust Speed Precip Events Conditions
12:15 AM 55.2 °F 49.3 °F 80% 30.16 in 10.0 mi ESE 3.5 mph - N/A   Clear
12:35 AM 54.7 °F 49.3 °F 82% 30.16 in 10.0 mi Calm Calm - N/A   Clear
12:55 AM 54.3 °F 49.5 °F 84% 30.16 in 10.0 mi Calm Calm - N/A   Scattered Clouds
1:15 AM 54.1 °F 50.0 °F 86% 30.15 in 10.0 mi Calm Calm - N/A   Overcast
1:35 AM 54.7 °F 50.0 °F 84% 30.15 in 10.0 mi Calm Calm - N/A   Overcast
2:15 AM 56.5 °F 49.6 °F 78% 30.14 in 10.0 mi SSW 5.8 mph - N/A   Overcast
2:35 AM 56.8 °F 49.5 °F 76% 30.15 in 10.0 mi SSW 4.6 mph - N/A   Overcast
2:55 AM 56.1 °F 49.8 °F 79% 30.15 in 10.0 mi Calm Calm - N/A   Overcast
3:15 AM 55.8 °F 49.8 °F 80% 30.14 in 10.0 mi SSW 4.6 mph - N/A   Overcast
3:35 AM 55.4 °F 49.5 °F 80% 30.14 in 10.0 mi SSW 6.9 mph - N/A   Overcast
3:55 AM 54.7 °F 49.8 °F 84% 30.14 in 10.0 mi Calm Calm - N/A   Overcast
4:15 AM 54.7 °F 49.6 °F 83% 30.15 in 10.0 mi Calm Calm - N/A   Overcast
4:35 AM 54.5 °F 50.0 °F 85% 30.14 in 10.0 mi Calm Calm - N/A   Overcast
4:55 AM 54.5 °F 50.0 °F 85% 30.14 in 10.0 mi Calm Calm - N/A   Overcast
5:15 AM 54.1 °F 50.2 °F 86% 30.15 in 10.0 mi Calm Calm - N/A   Mostly Cloudy
5:35 AM 54.0 °F 49.6 °F 85% 30.14 in 10.0 mi Calm Calm - N/A   Scattered Clouds
5:55 AM 53.8 °F 50.2 °F 88% 30.14 in 10.0 mi South 3.5 mph - N/A   Scattered Clouds
6:15 AM 52.9 °F 49.8 °F 89% 30.15 in 10.0 mi Calm Calm - N/A   Scattered Clouds
6:35 AM 53.6 °F 50.5 °F 89% 30.15 in 10.0 mi Calm Calm - N/A   Mostly Cloudy
6:55 AM 54.5 °F 50.9 °F 88% 30.15 in 10.0 mi Calm Calm - N/A   Scattered Clouds
7:15 AM 55.8 °F 51.8 °F 87% 30.16 in 10.0 mi Calm Calm - N/A   Mostly Cloudy
7:35 AM 57.6 °F 52.5 °F 83% 30.16 in 10.0 mi Calm Calm - N/A   Mostly Cloudy
7:55 AM 59.4 °F 52.5 °F 78% 30.16 in 10.0 mi SSW 4.6 mph - N/A   Mostly Cloudy
8:15 AM 60.3 °F 52.3 °F 75% 30.17 in 10.0 mi SSW 4.6 mph - N/A   Scattered Clouds
8:35 AM 61.9 °F 52.5 °F 71% 30.17 in 10.0 mi WSW 3.5 mph - N/A   Clear
8:55 AM 63.3 °F 52.9 °F 69% 30.17 in 10.0 mi WSW 3.5 mph - N/A   Mostly Cloudy
9:15 AM 64.9 °F 52.7 °F 64% 30.17 in 10.0 mi Calm Calm - N/A   Mostly Cloudy
9:35 AM 67.1 °F 51.3 °F 57% 30.17 in 10.0 mi Calm Calm - N/A   Mostly Cloudy
9:55 AM 68.2 °F 51.3 °F 55% 30.16 in 10.0 mi Calm Calm - N/A   Scattered Clouds
10:15 AM 69.8 °F 51.3 °F 52% 30.16 in 10.0 mi SSW 3.5 mph - N/A   Clear
10:35 AM 70.2 °F 49.8 °F 48% 30.16 in 10.0 mi SW 3.5 mph - N/A   Clear
10:55 AM 71.1 °F 47.1 °F 42% 30.16 in 10.0 mi Calm Calm - N/A   Clear
11:15 AM 72.5 °F 40.5 °F 31% 30.15 in 10.0 mi SSW 4.6 mph - N/A   Clear
11:35 AM 73.2 °F 42.3 °F 33% 30.15 in 10.0 mi WSW 5.8 mph - N/A   Clear
11:55 AM 72.9 °F 41.9 °F 33% 30.15 in 10.0 mi Calm Calm - N/A   Clear
12:15 PM 73.4 °F 41.7 °F 32% 30.14 in 10.0 mi Calm Calm - N/A   Scattered Clouds
12:35 PM 73.2 °F 42.3 °F 33% 30.14 in 10.0 mi SW 9.2 mph - N/A   Mostly Cloudy
12:55 PM 74.7 °F 39.7 °F 28% 30.13 in 10.0 mi NW 5.8 mph - N/A   Scattered Clouds
1:15 PM 74.7 °F 40.8 °F 30% 30.13 in 10.0 mi WSW 5.8 mph - N/A   Scattered Clouds
1:35 PM 75.2 °F 40.8 °F 29% 30.13 in 10.0 mi SSW 5.8 mph - N/A   Scattered Clouds
1:55 PM 73.2 °F 42.4 °F 33% 30.12 in 10.0 mi SW 4.6 mph - N/A   Overcast
2:15 PM 75.4 °F 43.0 °F 31% 30.12 in 10.0 mi SW 8.1 mph - N/A   Mostly Cloudy
2:35 PM 75.4 °F 42.3 °F 30% 30.12 in 10.0 mi West 5.8 mph - N/A   Scattered Clouds
2:55 PM 73.6 °F 42.8 °F 33% 30.12 in 10.0 mi WSW 6.9 mph - N/A   Scattered Clouds
3:15 PM 75.0 °F 41.7 °F 30% 30.11 in 10.0 mi SW 8.1 mph - N/A   Mostly Cloudy
3:35 PM 75.6 °F 41.4 °F 29% 30.11 in 10.0 mi West 3.5 mph - N/A   Mostly Cloudy
3:55 PM 74.5 °F 42.6 °F 32% 30.11 in 10.0 mi WSW 5.8 mph - N/A   Scattered Clouds
4:15 PM 73.9 °F 44.2 °F 35% 30.11 in 10.0 mi SW 5.8 mph - N/A   Clear
4:35 PM 75.2 °F 44.1 °F 33% 30.10 in 10.0 mi WSW 9.2 mph - N/A   Clear
4:55 PM 73.9 °F 45.9 °F 37% 30.11 in 10.0 mi WSW 9.2 mph - N/A   Clear
5:15 PM 74.5 °F 45.5 °F 36% 30.11 in 10.0 mi SW 10.4 mph - N/A   Scattered Clouds
5:35 PM 73.8 °F 46.4 °F 38% 30.11 in 10.0 mi WSW 8.1 mph - N/A   Mostly Cloudy
5:55 PM 73.0 °F 46.9 °F 39% 30.11 in 10.0 mi SW 8.1 mph - N/A   Overcast
6:15 PM 73.4 °F 46.9 °F 39% 30.11 in 10.0 mi SW 8.1 mph - N/A   Overcast
6:35 PM 72.7 °F 47.5 °F 41% 30.11 in 10.0 mi WSW 3.5 mph - N/A   Overcast
6:55 PM 72.1 °F 48.0 °F 42% 30.11 in 10.0 mi WSW 3.5 mph - N/A   Mostly Cloudy
7:15 PM 69.8 °F 50.7 °F 51% 30.11 in 10.0 mi WSW 4.6 mph - N/A   Clear
7:35 PM 68.9 °F 50.4 °F 52% 30.12 in 10.0 mi WSW 5.8 mph - N/A   Clear
7:55 PM 67.1 °F 50.5 °F 55% 30.12 in 10.0 mi WSW 4.6 mph - N/A   Scattered Clouds
8:15 PM 65.7 °F 51.1 °F 59% 30.12 in 10.0 mi SSW 3.5 mph - N/A   Scattered Clouds
8:35 PM 66.0 °F 51.8 °F 60% 30.12 in 10.0 mi SW 4.6 mph - N/A   Scattered Clouds
8:55 PM 65.3 °F 52.3 °F 63% 30.12 in 10.0 mi Calm Calm - N/A   Mostly Cloudy
9:15 PM 64.4 °F 52.3 °F 65% 30.13 in 10.0 mi Calm Calm - N/A   Overcast
9:35 PM 65.1 °F 51.8 °F 62% 30.13 in 10.0 mi Calm Calm - N/A   Overcast
9:55 PM 64.8 °F 51.6 °F 62% 30.13 in 10.0 mi Calm Calm - N/A   Overcast
10:15 PM 63.9 °F 51.3 °F 64% 30.13 in 10.0 mi SSW 3.5 mph - N/A   Scattered Clouds
10:35 PM 63.1 °F 51.4 °F 66% 30.13 in 10.0 mi Calm Calm - N/A   Scattered Clouds
10:55 PM 62.4 °F 52.2 °F 69% 30.14 in 10.0 mi SSW 3.5 mph - N/A   Mostly Cloudy
11:15 PM 62.6 °F 52.3 °F 69% 30.14 in 10.0 mi Calm Calm - N/A   Overcast
11:35 PM 61.5 °F 52.5 °F 72% 30.14 in 10.0 mi SSW 3.5 mph - N/A   Mostly Cloudy
11:55 PM 60.8 °F 52.7 °F 75% 30.15 in 10.0 mi SW 3.5 mph - N/A   Mostly Cloudy